| time (UTC) | temp F | wind direction | speed MPH | gust MPH | rain 1hr in | rain 24hr in | rain mn in | humidity % | barometer mb |
| 20260507060155 | 41 | 205 | 0.0 | 0.0 | 0.00 | 0.62 | 0.00 | 96 | 1014.0 |
| 20260507053213 | 36 | 205 | 0.0 | 0.0 | 0.00 | 0.72 | 0.00 | 96 | 1014.0 |
| 20260507050200 | 33 | 205 | 0.0 | 0.0 | 0.00 | 0.72 | 0.00 | 95 | 1013.6 |
| 20260507043222 | 32 | 205 | 0.0 | 0.0 | 0.00 | 0.73 | 0.00 | 95 | 1013.4 |
| 20260507041710 | 32 | 205 | 0.0 | 0.0 | 0.00 | 0.73 | 0.00 | 94 | 1013.3 |
| 20260507034716 | 32 | 205 | 0.0 | 0.0 | 0.00 | 0.73 | 0.00 | 94 | 1013.1 |
| 20260507033148 | 33 | 205 | 0.0 | 0.0 | 0.00 | 0.73 | 0.00 | 95 | 1013.1 |
| 20260507030214 | 33 | 205 | 0.0 | 0.0 | 0.00 | 0.73 | 0.00 | 94 | 1013.1 |
| 20260507023202 | 33 | 205 | 0.0 | 0.0 | 0.00 | 0.73 | 0.00 | 94 | 1013.0 |
| 20260507020204 | 34 | 205 | 0.0 | 0.0 | 0.00 | 0.73 | 0.00 | 94 | 1012.8 |
| 20260507014700 | 35 | 205 | 0.0 | 0.0 | 0.00 | 0.73 | 0.00 | 94 | 1012.8 |
| 20260507011710 | 36 | 205 | 0.0 | 0.0 | 0.00 | 0.73 | 0.00 | 93 | 1012.8 |
| 20260507010150 | 37 | 205 | 0.0 | 0.0 | 0.00 | 0.73 | 0.00 | 93 | 1012.7 |
| 20260507003202 | 40 | 205 | 0.0 | 0.0 | 0.00 | 0.73 | 0.00 | 94 | 1012.4 |
| 20260507000220 | 42 | 205 | 0.0 | 0.0 | 0.00 | 0.73 | 0.00 | 94 | 1012.6 |
| 20260506234715 | 43 | 205 | 0.0 | 0.0 | 0.00 | 0.73 | 0.00 | 94 | 1012.4 |
| 20260506231704 | 43 | 205 | 0.0 | 0.0 | 0.00 | 0.73 | 0.00 | 95 | 1012.4 |
| 20260506230148 | 42 | 205 | 0.0 | 0.0 | 0.00 | 0.73 | 0.00 | 95 | 1012.5 |
| 20260506223158 | 42 | 205 | 0.0 | 0.0 | 0.00 | 0.73 | 0.00 | 93 | 1012.4 |
| 20260506220302 | 45 | 205 | 0.0 | 0.0 | 0.00 | 0.73 | 0.00 | 93 | 1012.4 |
| 20260506214704 | 46 | 205 | 0.0 | 0.0 | 0.00 | 0.73 | 0.73 | 93 | 1012.4 |
| 20260506211714 | 48 | 205 | 0.0 | 0.0 | 0.00 | 0.73 | 0.73 | 94 | 1012.4 |
| 20260506210209 | 48 | 205 | 0.0 | 0.0 | 0.00 | 0.73 | 0.73 | 95 | 1012.3 |
| 20260506204701 | 47 | 205 | 0.0 | 0.0 | 0.00 | 0.73 | 0.73 | 95 | 1012.4 |
| 20260506203148 | 47 | 205 | 0.0 | 2.0 | 0.00 | 0.73 | 0.73 | 94 | 1012.3 |
| 20260506200215 | 48 | 205 | 0.0 | 0.0 | 0.01 | 0.73 | 0.73 | 93 | 1011.9 |
| 20260506193214 | 49 | 205 | 0.0 | 2.0 | 0.02 | 0.73 | 0.73 | 93 | 1011.5 |
| 20260506190205 | 49 | 282 | 1.0 | 4.0 | 0.01 | 0.72 | 0.72 | 94 | 1011.1 |
| 20260506184700 | 49 | 114 | 0.0 | 2.0 | 0.00 | 0.72 | 0.72 | 93 | 1011.1 |
| 20260506181712 | 49 | 114 | 0.0 | 2.0 | 0.00 | 0.72 | 0.72 | 93 | 1010.9 |
| 20260506180149 | 50 | 114 | 0.0 | 2.0 | 0.00 | 0.72 | 0.72 | 92 | 1011.0 |
| 20260506173204 | 51 | 220 | 0.0 | 0.0 | 0.00 | 0.72 | 0.72 | 92 | 1010.7 |
| 20260506171656 | 51 | 220 | 0.0 | 2.0 | 0.00 | 0.72 | 0.72 | 91 | 1010.6 |
| 20260506170147 | 51 | 214 | 0.0 | 3.0 | 0.00 | 0.72 | 0.72 | 91 | 1010.5 |
| 20260506163204 | 51 | 232 | 0.0 | 5.0 | 0.00 | 0.73 | 0.72 | 91 | 1010.2 |
| 20260506160210 | 51 | 267 | 1.0 | 3.0 | 0.00 | 0.73 | 0.72 | 92 | 1010.5 |
| 20260506153210 | 51 | 33 | 0.0 | 2.0 | 0.00 | 0.74 | 0.72 | 92 | 1010.4 |
| 20260506151710 | 51 | 33 | 0.0 | 4.0 | 0.00 | 0.74 | 0.72 | 90 | 1010.4 |
| 20260506144718 | 50 | 27 | 2.0 | 5.0 | 0.09 | 0.75 | 0.72 | 91 | 1010.6 |
| 20260506141722 | 49 | 57 | 0.0 | 3.0 | 0.09 | 0.75 | 0.72 | 93 | 1010.7 |
| 20260506134719 | 50 | 335 | 0.0 | 2.0 | 0.11 | 0.67 | 0.63 | 93 | 1010.8 |
| 20260506131702 | 50 | 315 | 0.0 | 2.0 | 0.14 | 0.67 | 0.63 | 94 | 1011.1 |
| 20260506124713 | 49 | 306 | 1.0 | 5.0 | 0.06 | 0.60 | 0.52 | 94 | 1011.1 |
| 20260506121716 | 49 | 194 | 1.0 | 6.0 | 0.12 | 0.57 | 0.49 | 94 | 1011.0 |
| 20260506114702 | 49 | 232 | 0.0 | 7.0 | 0.19 | 0.55 | 0.46 | 93 | 1011.1 |
| 20260506111712 | 49 | 196 | 0.0 | 3.0 | 0.10 | 0.46 | 0.37 | 93 | 1011.2 |
| 20260506110211 | 49 | 205 | 0.0 | 4.0 | 0.09 | 0.44 | 0.35 | 92 | 1011.4 |
| 20260506104709 | 50 | 212 | 1.0 | 3.0 | 0.01 | 0.49 | 0.28 | 92 | 1011.4 |
| 20260506101652 | 49 | 196 | 1.0 | 5.0 | 0.01 | 0.48 | 0.27 | 92 | 1011.7 |
| 20260506094716 | 49 | 238 | 0.0 | 2.0 | 0.01 | 0.61 | 0.27 | 92 | 1011.8 |
| 20260506091722 | 48 | 237 | 0.0 | 2.0 | 0.00 | 0.61 | 0.26 | 91 | 1011.8 |
| 20260506090219 | 48 | 237 | 1.0 | 4.0 | 0.00 | 0.61 | 0.26 | 89 | 1011.8 |
| 20260506084705 | 48 | 299 | 0.0 | 2.0 | 0.00 | 0.61 | 0.26 | 91 | 1011.7 |
| 20260506083206 | 48 | 261 | 0.0 | 4.0 | 0.01 | 0.61 | 0.26 | 91 | 1011.5 |
| 20260506081659 | 48 | 304 | 0.0 | 2.0 | 0.02 | 0.61 | 0.26 | 92 | 1011.5 |
| 20260506073209 | 47 | 65 | 0.0 | 2.0 | 0.06 | 0.61 | 0.25 | 95 | 1011.7 |
| 20260506070214 | 47 | 65 | 0.0 | 2.0 | 0.12 | 0.58 | 0.23 | 95 | 1011.7 |